METEOR 1-11

Satellite information

Favourite Embed

Satellite Type and Status

PAYLOADIN ORBIT

Key statistics

Satellite METEOR 1-11 at a glance.

Uptime

19457

Days in orbit

Revolutions

≈ 14.1

Per day

Orbit

LEO

Low Earth Orbit

Inclination

81.2

Latest

Satellite identification and parameters

Extended collection of information and parameters for METEOR 1-11.

Object identification

Identified? True

Debris? False

Object name: METEOR 1-11

International designator: 1972-022A

Object number (NORAD): 5917

Object ID (CCSDS): 5917

Country: COMMONWEALTH OF INDEPENDENT STATES (CIS)

Current information (Y/N): Y

RCS size: LARGE

Orbital parameters

Period: 102.188 minutes

Inclination: 81.2254 deg

SMA: 7240.341 km

Apoapsis: 890.681 km

Periapsis: 833.731 km

RAAN: 261.6644 deg

Eccentricy: 0.0039328

Argument of periapsis: 220.0004 deg

Mean anomaly: 139.8268 deg

Mean motion: 14.09172798 rev/day

Mean motion (dot): 0.0000005 rev/day2

B* drag term: 0.000021461 1/REarth

Two-line elements (TLE)

Creation date: July 6, 2025, 10:46 p.m.

Reference frame: TEME

Reference center: EARTH

Epoch: July 6, 2025, 5:06 p.m. UTC

TLE line 0: 0 METEOR 1-11

TLE line 1: 1 5917U 72022A 25187.71279952 .00000050 00000-0 21461-4 0 9993

TLE line 2: 2 5917 81.2254 261.6644 0039328 220.0004 139.8268 14.09172798736065

Live tracking on map

Real-time ground track for satellite METEOR 1-11.

In-orbit conjunctions

A list of the most updated potential collisions computed for object METEOR 1-11.

Target Orbit TCA Probability of collision Miss distance Type
FENGYUN 1C DEB SSO 2025-03-19 04:05:04 0.0001090281 573.0 (m) DEBRIS
SL-16 R/B LEO 2024-12-16 17:01:55 0.0008955286 77.0 (m) ROCKET BODY
CZ-6A DEB SSO 2024-11-03 15:42:39 0.000105289 319.0 (m) DEBRIS
FENGYUN 1C DEB SSO 2024-10-09 09:00:09 0.0008000073 92.0 (m) DEBRIS
CZ-6A DEB SSO 2024-09-26 19:18:35 0.001331287 222.0 (m) DEBRIS

Associated space launch

The Meteor-1 series was the first series of Soviet meteorological satellites.

METEOR 1-11 was lifted into orbit during the mission ‘Vostok 8A92M | Meteor-1 11 (23L)’, on board a Vostok 8A92M space rocket.

The launch took place on March 30, 1972, 2:05 p.m. from 41/1.

For more information about the launch, click the button.

Launch to space Vostok 8A92M | Meteor-1 11 (23L)
Vostok 8A92M | Meteor-1 11 (23L)

Agency: N/A

Status: Launch Successful

Launch date: March 30, 1972, 2:05 p.m. UTC

Rocket: Vostok 8A92M

Launch pad: 41/1

Location: Plesetsk Cosmodrome, Russian Federation

...

Latest news about this satellite

There are no fresh news available about this satellite. Check back as we update our databases every day.


Newsletter sign-up

Weekly statistics, charts and insights to help you stay on top of the space industry.